When you browse on this site, cookies collect data to enhance your experience and personalize the content and advertising you see.
Visit our Privacy Policy to learn more. By continuing to use the site, you agree to this use of cookies and data.
  • In Schweiz
  • Länderverzeichnis
  • Für 7 Tage
  • Wassertemperatur
  • Wetterkarte
  • Widgets
  • user-avatar
    Anmelden

    Stündliche Wetter Loja

    Heute, 17 September, Dienstag

    Zeit Temperatur Niederschläge Wind Luftdruck Luftfeuchtigkeit
    00:00 +21°C° 0 mm 0 m/S 712 mmHg 59%
    01:00 +23°C° 0 mm 1 m/S 711 mmHg 59%
    02:00 +23°C° 0 mm 1 m/S 711 mmHg 59%
    03:00 +23°C° 0 mm 1 m/S 711 mmHg 59%
    04:00 +23°C° 0 mm 1 m/S 711 mmHg 59%
    05:00 +23°C° 0 mm 2 m/S 711 mmHg 59%
    06:00 +23°C° 0 mm 2 m/S 711 mmHg 59%
    07:00 +24°C° 0 mm 2 m/S 711 mmHg 55%
    08:00 +25°C° 0 mm 2 m/S 711 mmHg 52%
    09:00 +26°C° 0 mm 2 m/S 711 mmHg 48%
    10:00 +27°C° 0.1 mm 2 m/S 711 mmHg 44%
    11:00 +28°C° 0.1 mm 2 m/S 711 mmHg 40%
    12:00 +29°C° 0.1 mm 2 m/S 711 mmHg 36%
    13:00 +30°C° 0 mm 3 m/S 711 mmHg 35%
    14:00 +31°C° 0 mm 3 m/S 711 mmHg 33%
    15:00 +31°C° 0 mm 3 m/S 710 mmHg 32%
    16:00 +30°C° 0 mm 3 m/S 710 mmHg 36%
    17:00 +29°C° 0 mm 3 m/S 710 mmHg 41%
    18:00 +28°C° 0 mm 2 m/S 710 mmHg 45%
    19:00 +26°C° 0.1 mm 2 m/S 710 mmHg 50%
    20:00 +25°C° 0.1 mm 1 m/S 710 mmHg 55%
    21:00 +24°C° 0.1 mm 1 m/S 711 mmHg 60%
    22:00 +23°C° 0 mm 1 m/S 711 mmHg 61%
    23:00 +21°C° 0 mm 0 m/S 711 mmHg 63%

    Morgen, 18 September, Mittwoch

    Zeit Temperatur Niederschläge Wind Luftdruck Luftfeuchtigkeit
    00:00 +21°C° 0 mm 0 m/S 710 mmHg 64%
    01:00 +20°C° 0 mm 0 m/S 710 mmHg 65%
    02:00 +20°C° 0 mm 0 m/S 710 mmHg 67%
    03:00 +20°C° 0 mm 0 m/S 710 mmHg 68%
    04:00 +19°C° 0 mm 0 m/S 710 mmHg 69%
    05:00 +19°C° 0 mm 0 m/S 710 mmHg 70%
    06:00 +19°C° 0 mm 0 m/S 710 mmHg 71%
    07:00 +20°C° 0 mm 0 m/S 710 mmHg 65%
    08:00 +21°C° 0 mm 0 m/S 710 mmHg 59%
    09:00 +23°C° 0 mm 0 m/S 711 mmHg 54%
    10:00 +26°C° 0 mm 1 m/S 711 mmHg 49%
    11:00 +27°C° 0 mm 2 m/S 711 mmHg 44%
    12:00 +29°C° 0 mm 2 m/S 711 mmHg 38%
    13:00 +29°C° 0 mm 2 m/S 711 mmHg 36%
    14:00 +30°C° 0 mm 3 m/S 711 mmHg 33%
    15:00 +30°C° 0 mm 3 m/S 711 mmHg 30%
    16:00 +29°C° 0 mm 2 m/S 711 mmHg 34%
    17:00 +28°C° 0 mm 2 m/S 710 mmHg 39%
    18:00 +27°C° 0 mm 2 m/S 710 mmHg 43%
    19:00 +26°C° 0 mm 1 m/S 710 mmHg 46%
    20:00 +25°C° 0 mm 1 m/S 711 mmHg 49%
    21:00 +24°C° 0 mm 1 m/S 711 mmHg 52%
    22:00 +24°C° 0 mm 1 m/S 711 mmHg 54%
    23:00 +23°C° 0 mm 1 m/S 711 mmHg 56%

    übermorgen, 19 September, Donnerstag

    Zeit Temperatur Niederschläge Wind Luftdruck Luftfeuchtigkeit
    00:00 +20°C° 0 mm 0 m/S 710 mmHg 58%
    01:00 +22°C° 0 mm 1 m/S 710 mmHg 59%
    02:00 +22°C° 0 mm 1 m/S 710 mmHg 60%
    03:00 +21°C° 0 mm 1 m/S 710 mmHg 62%
    04:00 +21°C° 0 mm 1 m/S 710 mmHg 62%
    05:00 +21°C° 0 mm 1 m/S 710 mmHg 63%
    06:00 +20°C° 0 mm 1 m/S 710 mmHg 63%
    07:00 +22°C° 0 mm 1 m/S 710 mmHg 57%
    08:00 +22°C° 0 mm 0 m/S 711 mmHg 51%
    09:00 +24°C° 0 mm 0 m/S 712 mmHg 45%
    10:00 +27°C° 0 mm 1 m/S 712 mmHg 39%
    11:00 +28°C° 0 mm 2 m/S 712 mmHg 33%
    12:00 +30°C° 0 mm 2 m/S 712 mmHg 26%
    13:00 +30°C° 0 mm 3 m/S 711 mmHg 26%
    14:00 +30°C° 0 mm 3 m/S 711 mmHg 25%
    15:00 +30°C° 0 mm 3 m/S 711 mmHg 24%
    16:00 +29°C° 0 mm 2 m/S 711 mmHg 27%
    17:00 +28°C° 0 mm 2 m/S 710 mmHg 30%
    18:00 +27°C° 0 mm 1 m/S 710 mmHg 33%
    19:00 +26°C° 0 mm 1 m/S 710 mmHg 35%
    20:00 +25°C° 0 mm 1 m/S 711 mmHg 37%
    21:00 +24°C° 0 mm 1 m/S 711 mmHg 38%
    22:00 +23°C° 0 mm 1 m/S 711 mmHg 42%
    23:00 +23°C° 0 mm 1 m/S 711 mmHg 45%

    20 September, Freitag

    Zeit Temperatur Niederschläge Wind Luftdruck Luftfeuchtigkeit
    00:00 +22°C° 0 mm 1 m/S 710 mmHg 49%
    01:00 +22°C° 0 mm 1 m/S 710 mmHg 51%
    02:00 +21°C° 0 mm 1 m/S 710 mmHg 52%
    03:00 +21°C° 0 mm 1 m/S 710 mmHg 54%
    04:00 +21°C° 0 mm 1 m/S 710 mmHg 53%
    05:00 +21°C° 0 mm 1 m/S 709 mmHg 53%
    06:00 +21°C° 0 mm 1 m/S 709 mmHg 53%
    07:00 +22°C° 0 mm 1 m/S 710 mmHg 52%
    08:00 +23°C° 0 mm 1 m/S 710 mmHg 50%
    09:00 +24°C° 0 mm 1 m/S 711 mmHg 48%
    10:00 +25°C° 0 mm 2 m/S 711 mmHg 48%
    11:00 +25°C° 0 mm 2 m/S 711 mmHg 47%
    12:00 +26°C° 0 mm 2 m/S 711 mmHg 47%
    13:00 +26°C° 0.2 mm 3 m/S 710 mmHg 49%
    14:00 +26°C° 0.2 mm 3 m/S 710 mmHg 51%
    15:00 +26°C° 0.2 mm 3 m/S 710 mmHg 53%
    16:00 +25°C° 0.8 mm 3 m/S 709 mmHg 57%
    17:00 +24°C° 0.8 mm 2 m/S 709 mmHg 61%
    18:00 +23°C° 0.8 mm 2 m/S 709 mmHg 65%
    19:00 +23°C° 0.8 mm 2 m/S 709 mmHg 68%
    20:00 +22°C° 0.8 mm 1 m/S 710 mmHg 71%
    21:00 +22°C° 0.8 mm 1 m/S 710 mmHg 74%
    22:00 +21°C° 1.8 mm 1 m/S 709 mmHg 75%
    23:00 +21°C° 1.8 mm 1 m/S 709 mmHg 77%

    21 September, Samstag

    Zeit Temperatur Niederschläge Wind Luftdruck Luftfeuchtigkeit
    00:00 +21°C° 1.8 mm 1 m/S 709 mmHg 78%
    01:00 +21°C° 1.2 mm 1 m/S 709 mmHg 78%
    02:00 +20°C° 1.2 mm 1 m/S 709 mmHg 78%
    03:00 +20°C° 1.2 mm 1 m/S 708 mmHg 78%
    04:00 +18°C° 0.1 mm 0 m/S 708 mmHg 79%
    05:00 +17°C° 0.1 mm 0 m/S 708 mmHg 80%
    06:00 +17°C° 0.1 mm 0 m/S 708 mmHg 81%
    07:00 +18°C° 0 mm 0 m/S 709 mmHg 75%
    08:00 +20°C° 0 mm 0 m/S 709 mmHg 69%
    09:00 +21°C° 0 mm 0 m/S 710 mmHg 63%
    10:00 +24°C° 0 mm 1 m/S 710 mmHg 59%
    11:00 +25°C° 0 mm 2 m/S 710 mmHg 54%
    12:00 +26°C° 0 mm 2 m/S 710 mmHg 50%
    13:00 +27°C° 0 mm 2 m/S 710 mmHg 48%
    14:00 +27°C° 0 mm 3 m/S 709 mmHg 46%
    15:00 +28°C° 0 mm 3 m/S 709 mmHg 44%
    16:00 +27°C° 0 mm 3 m/S 709 mmHg 46%
    17:00 +26°C° 0 mm 2 m/S 709 mmHg 49%
    18:00 +25°C° 0 mm 2 m/S 709 mmHg 52%
    19:00 +25°C° 0 mm 2 m/S 709 mmHg 52%
    20:00 +25°C° 0 mm 1 m/S 710 mmHg 52%
    21:00 +24°C° 0 mm 1 m/S 710 mmHg 52%
    22:00 +24°C° 0 mm 1 m/S 710 mmHg 53%
    23:00 +24°C° 0 mm 1 m/S 710 mmHg 54%

    22 September, Sonntag

    Zeit Temperatur Niederschläge Wind Luftdruck Luftfeuchtigkeit
    00:00 +23°C° 0 mm 1 m/S 710 mmHg 55%
    01:00 +23°C° 0 mm 1 m/S 710 mmHg 58%
    02:00 +22°C° 0 mm 1 m/S 709 mmHg 60%
    03:00 +22°C° 0 mm 1 m/S 709 mmHg 62%
    04:00 +21°C° 0 mm 1 m/S 709 mmHg 63%
    05:00 +21°C° 0 mm 1 m/S 709 mmHg 64%
    06:00 +20°C° 0 mm 1 m/S 709 mmHg 65%
    07:00 +22°C° 0 mm 1 m/S 710 mmHg 59%
    08:00 +23°C° 0 mm 1 m/S 710 mmHg 54%
    09:00 +24°C° 0 mm 1 m/S 711 mmHg 48%
    10:00 +26°C° 0 mm 1 m/S 711 mmHg 45%
    11:00 +27°C° 0 mm 2 m/S 711 mmHg 41%
    12:00 +28°C° 0 mm 2 m/S 712 mmHg 37%
    13:00 +28°C° 0 mm 2 m/S 711 mmHg 37%
    14:00 +29°C° 0 mm 3 m/S 711 mmHg 36%
    15:00 +29°C° 0 mm 3 m/S 711 mmHg 36%
    16:00 +28°C° 0 mm 3 m/S 711 mmHg 39%
    17:00 +27°C° 0 mm 2 m/S 711 mmHg 42%
    18:00 +26°C° 0 mm 2 m/S 711 mmHg 45%
    19:00 +25°C° 0 mm 1 m/S 711 mmHg 47%
    20:00 +25°C° 0 mm 1 m/S 712 mmHg 50%
    21:00 +22°C° 0 mm 0 m/S 712 mmHg 52%
    22:00 +21°C° 0 mm 0 m/S 712 mmHg 54%
    23:00 +23°C° 0 mm 1 m/S 712 mmHg 56%
    Mehr zeigen